QPF
0.12 0.17 0.16 0.07 0.06 0.06 0.08 0.08 0.05 0.04 0.03 0.03 0.03 0.04 0.07 0.10 0.08 0.05 0.05 0.05 0.06 0.06 0.08 0.11 0.11 0.10 0.10 0.08 0.07 0.07 0.06 0.06 0.07 0.08 0.07 0.07 0.08 0.10 0.12 0.10 0.05 0.04 0.07
0.10 0.12 0.14 0.08 0.07 0.06 0.05 0.04 0.04 0.04 0.03 0.02 0.02 0.03 0.05 0.08 0.09 0.05 0.05 0.05 0.07 0.08 0.09 0.10 0.10 0.10 0.10 0.08 0.08 0.07 0.07 0.07 0.08 0.09 0.08 0.09 0.11 0.12 0.14 0.10 0.06 0.05 0.07
0.09 0.08 0.09 0.08 0.06 0.05 0.04 0.04 0.04 0.04 0.02 0.02 0.02 0.03 0.04 0.07 0.07 0.05 0.05 0.06 0.07 0.09 0.09 0.10 0.10 0.09 0.08 0.09 0.09 0.07 0.08 0.08 0.09 0.12 0.10 0.07 0.09 0.11 0.10 0.09 0.07 0.07 0.06
0.08 0.06 0.05 0.06 0.04 0.03 0.04 0.05 0.04 0.03 0.03 0.02 0.02 0.02 0.03 0.06 0.08 0.06 0.05 0.06 0.08 0.09 0.11 0.11 0.11 0.10 0.10 0.10 0.09 0.08 0.09 0.10 0.11 0.08 0.04 0.02 0.03 0.06 0.06 0.07 0.07 0.07 0.05
0.07 0.06 0.06 0.05 0.04 0.02 0.04 0.06 0.04 0.04 0.04 0.02 0.02 0.02 0.03 0.05 0.11 0.11 0.09 0.09 0.11 0.14 0.16 0.16 0.11 0.10 0.09 0.09 0.09 0.09 0.09 0.09 0.06 0.03 0.02 0.02 0.03 0.04 0.04 0.06 0.07 0.07 0.05
0.07 0.06 0.06 0.05 0.04 0.02 0.03 0.03 0.04 0.03 0.04 0.03 0.02 0.02 0.03 0.08 0.16 0.19 0.19 0.16 0.17 0.18 0.18 0.14 0.09 0.08 0.06 0.07 0.09 0.09 0.10 0.07 0.02 0.01 0.01 0.01 0.01 0.03 0.04 0.05 0.05 0.05 0.05
0.06 0.06 0.05 0.04 0.03 0.02 0.01 0.02 0.03 0.03 0.04 0.03 0.04 0.04 0.03 0.04 0.08 0.16 0.21 0.18 0.16 0.13 0.10 0.07 0.05 0.04 0.05 0.09 0.11 0.10 0.10 0.07 0.01 0.00 0.00 0.01 0.02 0.03 0.05 0.06 0.04 0.04 0.04
0.07 0.04 0.05 0.04 0.02 0.01 0.01 0.02 0.03 0.04 0.06 0.05 0.04 0.04 0.04 0.04 0.05 0.09 0.14 0.10 0.06 0.05 0.04 0.04 0.04 0.04 0.05 0.07 0.08 0.07 0.08 0.05 0.01 0.01 0.00 0.01 0.03 0.04 0.06 0.06 0.04 0.04 0.04
0.05 0.03 0.03 0.03 0.02 0.02 0.01 0.02 0.03 0.05 0.06 0.06 0.05 0.04 0.04 0.04 0.05 0.07 0.07 0.05 0.03 0.03 0.02 0.03 0.04 0.04 0.05 0.05 0.06 0.07 0.07 0.06 0.02 0.01 0.00 0.01 0.03 0.04 0.06 0.05 0.04 0.04 0.04
0.05 0.04 0.02 0.02 0.02 0.01 0.02 0.04 0.07 0.10 0.09 0.08 0.06 0.03 0.03 0.05 0.06 0.05 0.03 0.03 0.02 0.02 0.02 0.03 0.04 0.04 0.06 0.07 0.07 0.08 0.07 0.05 0.03 0.01 0.00 0.01 0.03 0.05 0.04 0.03 0.03 0.04 0.04
0.03 0.02 0.02 0.01 0.01 0.01 0.04 0.13 0.16 0.13 0.09 0.06 0.04 0.04 0.04 0.03 0.02 0.02 0.02 0.02 0.02 0.02 0.03 0.04 0.04 0.05 0.06 0.08 0.09 0.09 0.06 0.04 0.04 0.02 0.01 0.03 0.04 0.04 0.04 0.03 0.03 0.03 0.03
0.02 0.02 0.02 0.02 0.01 0.00 0.01 0.04 0.05 0.04 0.03 0.02 0.02 0.02 0.02 0.01 0.01 0.01 0.02 0.02 0.02 0.03 0.03 0.04 0.04 0.03 0.03 0.04 0.06 0.06 0.04 0.04 0.04 0.03 0.03 0.05 0.05 0.05 0.04 0.03 0.03 0.03 0.04
0.02 0.01 0.02 0.02 0.01 0.00 0.00 0.00 0.00 0.01 0.01 0.01 0.00 0.01 0.01 0.01 0.01 0.01 0.01 0.01 0.01 0.01 0.01 0.03 0.03 0.01 0.02 0.03 0.05 0.04 0.04 0.03 0.03 0.04 0.04 0.04 0.05 0.06 0.05 0.03 0.04 0.03 0.04
0.01 0.01 0.01 0.01 0.01 0.01 0.00 0.00 0.00 0.00 0.01 0.00 0.00 0.00 0.00 0.01 0.01 0.01 0.00 0.00 0.00 0.01 0.01 0.01 0.02 0.02 0.03 0.04 0.06 0.06 0.03 0.02 0.03 0.04 0.04 0.04 0.04 0.06 0.05 0.04 0.04 0.04 0.05
0.01 0.01 0.01 0.01 0.01 0.01 0.00 0.00 0.00 0.00 0.00 0.00 0.00 0.00 0.00 0.01 0.01 0.01 0.01 0.01 0.01 0.01 0.01 0.02 0.03 0.03 0.04 0.04 0.05 0.05 0.03 0.02 0.04 0.04 0.04 0.04 0.05 0.06 0.07 0.07 0.05 0.05 0.05
0.01 0.01 0.02 0.01 0.01 0.01 0.01 0.01 0.01 0.01 0.01 0.01 0.01 0.01 0.01 0.01 0.01 0.01 0.02 0.02 0.02 0.02 0.01 0.02 0.03 0.03 0.04 0.05 0.06 0.05 0.06 0.04 0.02 0.03 0.04 0.04 0.06 0.07 0.08 0.08 0.06 0.06 0.06
0.01 0.01 0.02 0.01 0.01 0.01 0.02 0.01 0.02 0.02 0.02 0.02 0.02 0.02 0.04 0.03 0.02 0.03 0.03 0.02 0.02 0.02 0.02 0.02 0.03 0.04 0.05 0.06 0.07 0.06 0.05 0.04 0.04 0.05 0.04 0.03 0.03 0.06 0.09 0.10 0.09 0.07 0.08
0.01 0.01 0.02 0.01 0.01 0.01 0.02 0.02 0.03 0.02 0.03 0.03 0.03 0.04 0.06 0.06 0.05 0.04 0.04 0.03 0.03 0.03 0.03 0.04 0.06 0.05 0.06 0.06 0.05 0.05 0.06 0.06 0.05 0.06 0.05 0.04 0.02 0.03 0.06 0.10 0.10 0.08 0.08
0.02 0.02 0.01 0.01 0.02 0.02 0.02 0.03 0.04 0.03 0.02 0.03 0.02 0.04 0.05 0.05 0.04 0.03 0.03 0.03 0.04 0.04 0.03 0.03 0.06 0.08 0.06 0.05 0.05 0.05 0.06 0.06 0.05 0.04 0.05 0.03 0.02 0.01 0.02 0.06 0.09 0.08 0.07
0.03 0.03 0.02 0.02 0.02 0.02 0.03 0.03 0.03 0.03 0.02 0.03 0.03 0.05 0.06 0.04 0.03 0.03 0.03 0.03 0.02 0.02 0.03 0.04 0.06 0.09 0.08 0.08 0.06 0.05 0.05 0.06 0.06 0.05 0.04 0.04 0.04 0.04 0.04 0.04 0.05 0.05 0.06
0.05 0.04 0.03 0.02 0.03 0.04 0.05 0.05 0.04 0.04 0.02 0.03 0.05 0.06 0.06 0.05 0.04 0.05 0.05 0.04 0.02 0.02 0.02 0.03 0.06 0.10 0.10 0.09 0.08 0.07 0.07 0.05 0.04 0.04 0.04 0.05 0.05 0.05 0.05 0.05 0.04 0.03 0.03
0.08 0.06 0.05 0.05 0.05 0.06 0.08 0.08 0.07 0.06 0.03 0.03 0.05 0.05 0.06 0.05 0.04 0.04 0.07 0.06 0.03 0.02 0.02 0.03 0.05 0.08 0.11 0.09 0.07 0.06 0.06 0.04 0.04 0.04 0.04 0.04 0.05 0.05 0.04 0.04 0.04 0.03 0.03
0.07 0.08 0.10 0.12 0.10 0.09 0.09 0.08 0.06 0.05 0.04 0.04 0.03 0.04 0.05 0.04 0.04 0.04 0.05 0.05 0.04 0.03 0.03 0.04 0.05 0.08 0.08 0.09 0.07 0.06 0.04 0.02 0.02 0.03 0.03 0.03 0.04 0.05 0.04 0.04 0.03 0.03 0.03
0.05 0.10 0.11 0.13 0.16 0.11 0.06 0.05 0.05 0.04 0.03 0.03 0.03 0.04 0.05 0.04 0.04 0.04 0.04 0.04 0.05 0.03 0.03 0.06 0.07 0.08 0.06 0.07 0.08 0.05 0.05 0.03 0.03 0.02 0.01 0.02 0.03 0.03 0.04 0.05 0.05 0.04 0.05
0.05 0.08 0.09 0.13 0.13 0.08 0.04 0.04 0.04 0.04 0.04 0.04 0.04 0.06 0.06 0.05 0.06 0.06 0.05 0.04 0.05 0.05 0.05 0.07 0.08 0.08 0.05 0.06 0.07 0.06 0.06 0.05 0.04 0.03 0.02 0.01 0.02 0.02 0.03 0.03 0.02 0.04 0.04
0.03 0.06 0.09 0.08 0.05 0.04 0.05 0.05 0.04 0.05 0.05 0.05 0.06 0.08 0.07 0.06 0.07 0.09 0.09 0.09 0.08 0.07 0.06 0.08 0.10 0.10 0.08 0.06 0.06 0.06 0.06 0.08 0.08 0.06 0.04 0.03 0.02 0.02 0.02 0.01 0.02 0.03 0.04
MSLP
1012.88 1012.22 1011.67 1011.28 1011.08 1011.06 1011.17 1011.36 1011.56 1011.72 1011.83 1011.90 1011.96 1012.04 1012.18 1012.39 1012.66 1012.98 1013.32 1013.64 1013.92 1014.16 1014.36 1014.55 1014.73 1014.92 1015.13 1015.35 1015.57 1015.78 1015.98 1016.16 1016.33 1016.50 1016.68 1016.87 1017.09 1017.31 1017.53 1017.74 1017.93 1018.09 1018.24
1013.19 1012.61 1012.11 1011.77 1011.61 1011.62 1011.74 1011.93 1012.11 1012.26 1012.34 1012.39 1012.44 1012.52 1012.67 1012.89 1013.18 1013.51 1013.83 1014.13 1014.38 1014.57 1014.73 1014.87 1015.01 1015.18 1015.37 1015.57 1015.78 1015.99 1016.18 1016.36 1016.53 1016.70 1016.89 1017.10 1017.33 1017.56 1017.79 1018.00 1018.19 1018.35 1018.51
1013.41 1012.90 1012.46 1012.18 1012.07 1012.11 1012.26 1012.46 1012.64 1012.77 1012.85 1012.89 1012.94 1013.02 1013.17 1013.40 1013.68 1013.98 1014.28 1014.53 1014.73 1014.87 1014.98 1015.08 1015.20 1015.35 1015.53 1015.73 1015.95 1016.16 1016.35 1016.54 1016.71 1016.90 1017.10 1017.32 1017.55 1017.79 1018.02 1018.24 1018.43 1018.60 1018.75
1013.53 1013.10 1012.74 1012.52 1012.47 1012.56 1012.74 1012.95 1013.14 1013.27 1013.34 1013.38 1013.43 1013.52 1013.66 1013.88 1014.14 1014.41 1014.65 1014.85 1014.99 1015.08 1015.15 1015.22 1015.32 1015.47 1015.65 1015.87 1016.09 1016.31 1016.52 1016.71 1016.89 1017.08 1017.29 1017.52 1017.76 1018.00 1018.23 1018.44 1018.63 1018.81 1018.97
1013.60 1013.24 1012.96 1012.82 1012.83 1012.97 1013.19 1013.42 1013.61 1013.75 1013.82 1013.85 1013.90 1013.98 1014.13 1014.32 1014.55 1014.78 1014.97 1015.11 1015.20 1015.25 1015.28 1015.34 1015.44 1015.59 1015.79 1016.02 1016.25 1016.48 1016.69 1016.89 1017.08 1017.28 1017.49 1017.71 1017.95 1018.19 1018.41 1018.62 1018.80 1018.98 1019.16
1013.69 1013.40 1013.19 1013.12 1013.20 1013.38 1013.63 1013.87 1014.06 1014.18 1014.25 1014.28 1014.32 1014.40 1014.54 1014.72 1014.92 1015.11 1015.26 1015.35 1015.40 1015.41 1015.44 1015.49 1015.60 1015.77 1015.98 1016.22 1016.46 1016.69 1016.90 1017.09 1017.28 1017.47 1017.68 1017.91 1018.14 1018.37 1018.58 1018.77 1018.95 1019.12 1019.30
1013.84 1013.61 1013.46 1013.46 1013.59 1013.81 1014.06 1014.30 1014.47 1014.58 1014.63 1014.65 1014.69 1014.77 1014.90 1015.07 1015.25 1015.41 1015.52 1015.59 1015.61 1015.61 1015.64 1015.70 1015.82 1016.01 1016.23 1016.47 1016.71 1016.93 1017.13 1017.31 1017.48 1017.67 1017.87 1018.09 1018.31 1018.53 1018.73 1018.91 1019.07 1019.23 1019.41
1014.10 1013.91 1013.82 1013.87 1014.03 1014.27 1014.51 1014.72 1014.86 1014.94 1014.96 1014.97 1015.01 1015.09 1015.23 1015.39 1015.56 1015.70 1015.79 1015.84 1015.85 1015.85 1015.88 1015.96 1016.10 1016.30 1016.53 1016.77 1017.00 1017.19 1017.36 1017.51 1017.66 1017.83 1018.02 1018.23 1018.45 1018.66 1018.85 1019.01 1019.16 1019.31 1019.47
1014.45 1014.30 1014.26 1014.35 1014.53 1014.75 1014.97 1015.13 1015.23 1015.26 1015.25 1015.25 1015.28 1015.37 1015.51 1015.67 1015.84 1015.97 1016.05 1016.08 1016.09 1016.10 1016.15 1016.25 1016.40 1016.61 1016.84 1017.06 1017.26 1017.42 1017.55 1017.66 1017.78 1017.92 1018.10 1018.30 1018.51 1018.72 1018.91 1019.07 1019.21 1019.35 1019.50
1014.87 1014.76 1014.76 1014.87 1015.05 1015.24 1015.41 1015.52 1015.55 1015.54 1015.50 1015.48 1015.52 1015.61 1015.76 1015.93 1016.09 1016.21 1016.29 1016.31 1016.32 1016.33 1016.39 1016.50 1016.67 1016.88 1017.09 1017.29 1017.46 1017.57 1017.65 1017.72 1017.80 1017.91 1018.07 1018.27 1018.49 1018.71 1018.91 1019.08 1019.22 1019.35 1019.49
1015.27 1015.21 1015.25 1015.37 1015.54 1015.70 1015.81 1015.85 1015.83 1015.76 1015.70 1015.67 1015.71 1015.82 1015.97 1016.15 1016.31 1016.42 1016.48 1016.49 1016.49 1016.51 1016.56 1016.68 1016.84 1017.05 1017.25 1017.42 1017.54 1017.61 1017.64 1017.66 1017.70 1017.79 1017.93 1018.13 1018.36 1018.60 1018.82 1019.01 1019.16 1019.31 1019.45
1015.61 1015.59 1015.67 1015.80 1015.94 1016.06 1016.11 1016.09 1016.02 1015.92 1015.84 1015.81 1015.86 1015.98 1016.14 1016.32 1016.47 1016.57 1016.61 1016.61 1016.59 1016.59 1016.64 1016.75 1016.91 1017.10 1017.28 1017.42 1017.51 1017.54 1017.52 1017.50 1017.51 1017.57 1017.70 1017.89 1018.13 1018.39 1018.64 1018.86 1019.05 1019.21 1019.37
1015.82 1015.86 1015.96 1016.09 1016.21 1016.29 1016.29 1016.22 1016.11 1015.99 1015.90 1015.88 1015.95 1016.08 1016.26 1016.43 1016.58 1016.66 1016.68 1016.66 1016.62 1016.60 1016.63 1016.72 1016.87 1017.04 1017.20 1017.32 1017.38 1017.37 1017.33 1017.28 1017.25 1017.28 1017.39 1017.58 1017.83 1018.10 1018.38 1018.64 1018.86 1019.06 1019.25
1015.90 1015.97 1016.09 1016.22 1016.32 1016.36 1016.33 1016.23 1016.09 1015.97 1015.89 1015.89 1015.97 1016.12 1016.31 1016.49 1016.62 1016.69 1016.69 1016.64 1016.58 1016.53 1016.54 1016.61 1016.74 1016.89 1017.03 1017.14 1017.18 1017.17 1017.11 1017.03 1016.99 1017.00 1017.09 1017.26 1017.49 1017.77 1018.07 1018.36 1018.62 1018.86 1019.08
1015.84 1015.94 1016.07 1016.19 1016.27 1016.29 1016.23 1016.12 1015.99 1015.87 1015.81 1015.84 1015.95 1016.11 1016.31 1016.49 1016.61 1016.67 1016.65 1016.58 1016.50 1016.43 1016.42 1016.46 1016.56 1016.69 1016.83 1016.92 1016.97 1016.96 1016.90 1016.83 1016.77 1016.76 1016.83 1016.97 1017.18 1017.44 1017.73 1018.03 1018.31 1018.58 1018.84
1015.69 1015.80 1015.93 1016.04 1016.10 1016.10 1016.05 1015.94 1015.83 1015.75 1015.72 1015.77 1015.90 1016.08 1016.27 1016.45 1016.57 1016.62 1016.59 1016.51 1016.41 1016.32 1016.27 1016.29 1016.37 1016.48 1016.60 1016.71 1016.77 1016.79 1016.75 1016.70 1016.64 1016.62 1016.65 1016.75 1016.92 1017.13 1017.39 1017.67 1017.95 1018.23 1018.51
1015.50 1015.60 1015.72 1015.82 1015.88 1015.89 1015.85 1015.78 1015.70 1015.65 1015.66 1015.74 1015.88 1016.06 1016.25 1016.41 1016.53 1016.56 1016.53 1016.43 1016.32 1016.21 1016.13 1016.12 1016.16 1016.26 1016.38 1016.49 1016.59 1016.64 1016.65 1016.63 1016.60 1016.57 1016.58 1016.63 1016.72 1016.87 1017.07 1017.29 1017.55 1017.82 1018.10
1015.32 1015.41 1015.51 1015.60 1015.67 1015.71 1015.71 1015.69 1015.66 1015.66 1015.70 1015.79 1015.93 1016.10 1016.27 1016.41 1016.50 1016.52 1016.47 1016.37 1016.23 1016.10 1015.99 1015.94 1015.94 1016.01 1016.12 1016.25 1016.38 1016.49 1016.56 1016.60 1016.60 1016.59 1016.57 1016.57 1016.60 1016.66 1016.77 1016.92 1017.12 1017.35 1017.61
1015.19 1015.27 1015.36 1015.46 1015.55 1015.63 1015.69 1015.74 1015.78 1015.83 1015.90 1015.99 1016.11 1016.24 1016.36 1016.46 1016.52 1016.51 1016.44 1016.31 1016.15 1015.98 1015.83 1015.72 1015.68 1015.71 1015.81 1015.95 1016.12 1016.29 1016.44 1016.54 1016.60 1016.62 1016.60 1016.56 1016.52 1016.50 1016.51 1016.57 1016.69 1016.86 1017.09
1015.14 1015.20 1015.29 1015.41 1015.55 1015.69 1015.83 1015.96 1016.07 1016.18 1016.27 1016.35 1016.43 1016.50 1016.56 1016.60 1016.59 1016.54 1016.43 1016.26 1016.06 1015.84 1015.63 1015.46 1015.36 1015.34 1015.42 1015.56 1015.77 1016.00 1016.22 1016.41 1016.55 1016.61 1016.61 1016.55 1016.47 1016.37 1016.30 1016.28 1016.31 1016.42 1016.59
1015.18 1015.24 1015.34 1015.49 1015.68 1015.90 1016.12 1016.34 1016.53 1016.69 1016.79 1016.86 1016.89 1016.89 1016.87 1016.82 1016.74 1016.62 1016.45 1016.23 1015.97 1015.69 1015.41 1015.16 1014.99 1014.91 1014.94 1015.08 1015.31 1015.60 1015.90 1016.18 1016.40 1016.53 1016.58 1016.53 1016.43 1016.30 1016.17 1016.08 1016.04 1016.08 1016.19
1015.32 1015.38 1015.50 1015.68 1015.93 1016.22 1016.54 1016.85 1017.11 1017.32 1017.44 1017.49 1017.47 1017.39 1017.28 1017.14 1016.97 1016.77 1016.53 1016.24 1015.91 1015.55 1015.19 1014.86 1014.60 1014.45 1014.43 1014.55 1014.79 1015.12 1015.49 1015.86 1016.17 1016.39 1016.50 1016.51 1016.43 1016.29 1016.14 1016.01 1015.93 1015.91 1015.97
1015.57 1015.63 1015.76 1015.97 1016.27 1016.63 1017.03 1017.42 1017.75 1018.00 1018.15 1018.18 1018.11 1017.97 1017.77 1017.54 1017.29 1017.01 1016.69 1016.33 1015.93 1015.49 1015.05 1014.63 1014.29 1014.06 1013.98 1014.07 1014.30 1014.65 1015.07 1015.51 1015.91 1016.22 1016.42 1016.50 1016.48 1016.39 1016.26 1016.13 1016.03 1015.98 1015.99
1015.96 1016.02 1016.14 1016.36 1016.68 1017.09 1017.54 1018.00 1018.39 1018.69 1018.85 1018.88 1018.78 1018.59 1018.33 1018.03 1017.71 1017.36 1016.97 1016.55 1016.09 1015.58 1015.07 1014.58 1014.15 1013.85 1013.71 1013.75 1013.95 1014.30 1014.75 1015.24 1015.70 1016.10 1016.39 1016.56 1016.63 1016.61 1016.54 1016.45 1016.37 1016.31 1016.29
1016.51 1016.54 1016.64 1016.85 1017.17 1017.59 1018.07 1018.56 1018.99 1019.33 1019.52 1019.55 1019.45 1019.24 1018.94 1018.60 1018.23 1017.84 1017.42 1016.95 1016.45 1015.90 1015.33 1014.78 1014.30 1013.93 1013.73 1013.71 1013.87 1014.20 1014.64 1015.14 1015.65 1016.10 1016.47 1016.74 1016.90 1016.99 1017.00 1016.98 1016.94 1016.90 1016.85
1017.23 1017.23 1017.28 1017.44 1017.73 1018.13 1018.61 1019.10 1019.56 1019.92 1020.14 1020.20 1020.11 1019.90 1019.61 1019.26 1018.88 1018.47 1018.04 1017.56 1017.04 1016.48 1015.89 1015.31 1014.79 1014.38 1014.12 1014.04 1014.15 1014.42 1014.83 1015.31 1015.82 1016.31 1016.73 1017.08 1017.34 1017.52 1017.63 1017.69 1017.71 1017.69 1017.63
Thickness
5781 5785 5785 5785 5784 5784 5784 5784 5784 5783 5783 5782 5781 5780 5779 5777 5776 5774 5773 5771 5770 5768 5767 5765 5763 5761 5760 5757 5756 5754 5752 5750 5749 5747 5746 5744 5742 5741 5739 5738 5736 5734 5733
5785 5785 5785 5784 5784 5783 5783 5782 5782 5781 5781 5780 5779 5778 5777 5775 5774 5772 5771 5770 5768 5767 5765 5764 5762 5760 5758 5756 5754 5752 5750 5749 5747 5746 5744 5742 5741 5739 5738 5736 5734 5733 5731
5786 5785 5784 5783 5783 5782 5782 5781 5780 5780 5779 5778 5777 5776 5775 5774 5772 5770 5769 5768 5766 5765 5763 5761 5759 5757 5755 5754 5752 5750 5748 5747 5745 5744 5742 5740 5739 5738 5736 5735 5733 5731 5730
5785 5784 5783 5782 5782 5781 5780 5780 5779 5778 5777 5776 5775 5774 5773 5772 5770 5768 5767 5765 5764 5763 5761 5759 5757 5755 5753 5752 5750 5748 5747 5745 5743 5742 5740 5739 5738 5736 5735 5733 5731 5730 5728
5784 5782 5782 5781 5780 5780 5779 5778 5777 5776 5776 5775 5774 5772 5772 5770 5769 5767 5765 5764 5762 5761 5759 5757 5755 5753 5752 5750 5748 5747 5746 5744 5742 5740 5738 5737 5736 5735 5734 5732 5730 5728 5727
5782 5781 5781 5780 5779 5778 5778 5777 5776 5775 5774 5773 5772 5771 5769 5768 5767 5765 5763 5762 5761 5759 5757 5756 5754 5752 5750 5749 5747 5746 5744 5742 5741 5738 5737 5735 5734 5733 5732 5731 5729 5727 5725
5781 5780 5779 5779 5778 5777 5776 5775 5774 5773 5772 5771 5770 5769 5768 5766 5765 5763 5761 5760 5759 5756 5755 5754 5752 5750 5749 5747 5746 5744 5743 5741 5739 5737 5735 5734 5732 5732 5731 5729 5728 5726 5724
5781 5779 5778 5778 5777 5776 5775 5774 5773 5772 5770 5769 5768 5767 5766 5765 5763 5761 5759 5758 5757 5755 5753 5752 5751 5749 5747 5746 5744 5743 5742 5740 5738 5736 5734 5733 5731 5730 5730 5728 5727 5725 5724
5780 5778 5777 5777 5776 5775 5774 5772 5771 5770 5768 5767 5766 5765 5763 5762 5760 5759 5757 5757 5755 5753 5752 5750 5749 5747 5746 5744 5743 5742 5741 5739 5737 5735 5734 5732 5731 5730 5729 5727 5726 5725 5723
5777 5777 5776 5775 5775 5773 5772 5771 5769 5768 5766 5765 5764 5763 5761 5760 5758 5757 5756 5755 5754 5752 5750 5749 5748 5746 5745 5743 5742 5741 5739 5737 5736 5734 5733 5732 5731 5729 5728 5727 5726 5724 5723
5774 5774 5774 5774 5773 5772 5770 5769 5768 5766 5765 5763 5762 5761 5759 5758 5757 5756 5755 5754 5752 5751 5750 5748 5747 5745 5744 5742 5741 5739 5738 5736 5734 5733 5732 5731 5730 5729 5728 5727 5725 5724 5722
5771 5772 5772 5772 5771 5770 5769 5768 5766 5765 5763 5761 5760 5759 5757 5756 5755 5754 5753 5752 5751 5750 5749 5747 5746 5744 5742 5741 5740 5738 5737 5735 5734 5733 5732 5731 5730 5729 5728 5726 5725 5723 5722
5772 5772 5772 5771 5770 5769 5767 5766 5764 5763 5761 5760 5758 5757 5756 5755 5753 5752 5751 5750 5750 5749 5747 5746 5744 5742 5741 5740 5738 5737 5736 5734 5733 5733 5732 5731 5730 5729 5727 5725 5724 5723 5721
5772 5772 5772 5771 5769 5768 5766 5765 5763 5761 5760 5759 5757 5756 5754 5753 5752 5751 5750 5748 5748 5747 5745 5744 5743 5742 5740 5739 5738 5737 5736 5735 5734 5733 5732 5731 5730 5728 5727 5725 5724 5722 5720
5773 5773 5772 5771 5769 5767 5766 5764 5762 5761 5760 5758 5756 5755 5754 5752 5751 5750 5748 5747 5746 5745 5744 5743 5742 5741 5740 5739 5738 5737 5736 5735 5734 5733 5732 5731 5730 5728 5727 5725 5723 5722 5720
5775 5774 5774 5772 5771 5768 5766 5764 5763 5761 5760 5758 5756 5755 5753 5752 5750 5749 5748 5747 5746 5745 5744 5742 5741 5740 5739 5738 5738 5737 5736 5735 5734 5733 5732 5731 5729 5728 5727 5725 5724 5722 5720
5777 5776 5775 5773 5772 5769 5767 5765 5763 5761 5760 5758 5756 5755 5753 5751 5750 5748 5747 5746 5746 5744 5743 5742 5741 5740 5739 5738 5737 5736 5735 5734 5733 5732 5732 5730 5729 5728 5727 5726 5724 5722 5721
5780 5778 5777 5776 5773 5770 5768 5766 5763 5762 5760 5758 5756 5755 5753 5751 5749 5748 5747 5746 5745 5744 5742 5741 5740 5739 5738 5737 5736 5735 5735 5734 5733 5733 5732 5730 5729 5728 5727 5726 5724 5723 5722
5782 5780 5778 5777 5774 5772 5769 5766 5764 5762 5760 5758 5756 5754 5752 5751 5749 5748 5746 5745 5744 5743 5742 5741 5740 5739 5736 5735 5735 5735 5734 5734 5733 5733 5732 5730 5729 5728 5727 5726 5725 5724 5722
5784 5781 5779 5778 5776 5773 5769 5766 5763 5761 5760 5758 5756 5754 5753 5752 5750 5748 5746 5745 5743 5742 5741 5740 5739 5738 5736 5735 5734 5733 5733 5733 5733 5732 5731 5730 5729 5728 5727 5726 5725 5724 5723
5784 5781 5779 5776 5775 5772 5768 5763 5760 5758 5759 5758 5756 5755 5754 5752 5750 5748 5746 5744 5743 5742 5741 5739 5738 5737 5735 5734 5731 5729 5730 5732 5732 5732 5731 5730 5729 5728 5727 5726 5725 5724 5723
5784 5782 5779 5776 5775 5773 5770 5766 5763 5761 5759 5758 5757 5755 5754 5752 5751 5749 5747 5745 5743 5742 5740 5739 5737 5735 5734 5733 5729 5725 5722 5724 5728 5731 5730 5729 5729 5728 5727 5727 5725 5724 5723
5785 5783 5782 5778 5776 5774 5771 5767 5764 5760 5758 5756 5755 5754 5753 5752 5751 5749 5748 5746 5744 5742 5740 5739 5737 5735 5731 5731 5730 5726 5720 5717 5721 5726 5728 5728 5728 5727 5727 5727 5726 5725 5724
5789 5787 5784 5780 5776 5774 5772 5767 5763 5759 5755 5755 5754 5754 5753 5752 5751 5749 5748 5747 5745 5743 5741 5739 5738 5736 5733 5730 5729 5729 5727 5725 5719 5718 5724 5726 5727 5726 5726 5726 5726 5725 5724
5791 5788 5784 5781 5777 5774 5772 5769 5764 5760 5758 5756 5755 5753 5752 5751 5750 5749 5748 5746 5745 5743 5742 5740 5739 5737 5735 5733 5730 5728 5726 5724 5722 5718 5716 5720 5723 5725 5726 5726 5725 5725 5724
5792 5789 5785 5781 5777 5775 5772 5769 5765 5761 5758 5755 5753 5752 5751 5750 5749 5749 5748 5746 5745 5743 5742 5740 5739 5737 5736 5734 5732 5730 5728 5724 5721 5719 5716 5717 5718 5722 5725 5725 5725 5724 5724